DW8749 Weather Reports


Display with metric or nautical units.
time (UTC)temp
F
wind
direction
speed
MPH
gust
MPH
rain 1hr
in
rain 24hr
in
rain mn
in
humidity
%
barometer
mb
20260509224520 83 124 2.0 7.0 0.00 0.00 0.00 24 1006.5
20260509224007 83 88 3.0 9.0 0.00 0.00 0.00 24 1006.6
20260509223511 83 126 5.0 16.0 0.00 0.00 0.00 25 1006.7
20260509223026 83 137 6.0 21.0 0.00 0.00 0.00 24 1006.9
20260509222506 83 196 5.0 21.0 0.00 0.00 0.00 22 1006.8
20260509222008 84 132 6.0 10.0 0.00 0.00 0.00 21 1007.0
20260509221508 83 131 4.0 8.0 0.00 0.00 0.00 21 1007.1
20260509221003 83 140 1.0 4.0 0.00 0.00 0.00 21 1007.2
20260509220506 84 173 1.0 4.0 0.00 0.00 0.00 20 1007.3
20260509220016 84 139 1.0 7.0 0.00 0.00 0.00 20 1007.3
20260509215506 84 171 3.0 7.0 0.00 0.00 0.00 20 1007.3
20260509215006 84 184 3.0 7.0 0.00 0.00 0.00 21 1007.4
20260509214521 84 143 3.0 9.0 0.00 0.00 0.00 20 1007.4
20260509214007 84 184 4.0 9.0 0.00 0.00 0.00 20 1007.5
20260509213509 84 184 1.0 6.0 0.00 0.00 0.00 21 1007.6
20260509213024 84 204 3.0 7.0 0.00 0.00 0.00 20 1007.6
20260509212508 84 236 3.0 10.0 0.00 0.00 0.00 20 1007.7
20260509212013 84 253 5.0 15.0 0.00 0.00 0.00 20 1007.8
20260509211520 84 232 5.0 15.0 0.00 0.00 0.00 20 1007.8
20260509211006 85 121 5.0 8.0 0.00 0.00 0.00 20 1007.9
20260509210508 85 173 1.0 9.0 0.00 0.00 0.00 20 1007.9
20260509210017 85 155 2.0 14.0 0.00 0.00 0.00 20 1008.0
20260509205510 85 130 8.0 14.0 0.00 0.00 0.00 19 1008.0
20260509205011 86 155 3.0 9.0 0.00 0.00 0.00 19 1008.1
20260509204523 86 155 4.0 9.0 0.00 0.00 0.00 18 1008.1
20260509204009 86 246 3.0 15.0 0.00 0.00 0.00 19 1008.1
20260509203511 86 224 4.0 15.0 0.00 0.00 0.00 20 1008.2
20260509203039 86 238 4.0 12.0 0.00 0.00 0.00 21 1008.3
20260509202510 86 209 8.0 12.0 0.00 0.00 0.00 20 1008.3
20260509202006 86 150 4.0 10.0 0.00 0.00 0.00 20 1008.4
20260509201513 86 192 5.0 11.0 0.00 0.00 0.00 21 1008.4
20260509201007 86 214 6.0 11.0 0.00 0.00 0.00 20 1008.4
20260509200508 86 192 5.0 11.0 0.00 0.00 0.00 19 1008.5
20260509200020 86 211 4.0 15.0 0.00 0.00 0.00 20 1008.6
20260509195508 86 207 7.0 15.0 0.00 0.00 0.00 19 1008.6
20260509195010 85 188 7.0 13.0 0.00 0.00 0.00 20 1008.6
20260509194525 86 149 8.0 13.0 0.00 0.00 0.00 21 1008.7
20260509194009 86 202 5.0 15.0 0.00 0.00 0.00 22 1008.6
20260509193510 85 222 5.0 15.0 0.00 0.00 0.00 23 1008.6
20260509193027 85 148 6.0 11.0 0.00 0.00 0.00 21 1008.7
20260509192506 85 192 4.0 11.0 0.00 0.00 0.00 22 1008.8
20260509192006 84 127 5.0 11.0 0.00 0.00 0.00 21 1008.8
20260509191513 84 186 4.0 8.0 0.00 0.00 0.00 24 1008.8
20260509191011 84 212 3.0 10.0 0.00 0.00 0.00 22 1009.0
20260509190509 84 250 3.0 10.0 0.00 0.00 0.00 21 1009.1
20260509190025 84 229 5.0 10.0 0.00 0.00 0.00 23 1009.1
20260509185508 84 277 2.0 7.0 0.00 0.00 0.00 24 1009.1
20260509185013 85 153 2.0 6.0 0.00 0.00 0.00 25 1009.1
20260509184526 85 132 1.0 7.0 0.00 0.00 0.00 24 1009.3
20260509184011 84 252 2.0 9.0 0.00 0.00 0.00 27 1009.2
20260509183507 83 280 4.0 9.0 0.00 0.00 0.00 26 1009.3
20260509183033 83 131 2.0 9.0 0.00 0.00 0.00 23 1009.4
20260509182505 83 258 5.0 9.0 0.00 0.00 0.00 26 1009.6
20260509182006 83 211 1.0 5.0 0.00 0.00 0.00 27 1009.7
20260509181520 83 209 2.0 6.0 0.00 0.00 0.00 28 1009.8
20260509181004 82 229 2.0 8.0 0.00 0.00 0.00 30 1010.0
20260509180504 82 202 3.0 9.0 0.00 0.00 0.00 30 1010.1
20260509180005 81 249 1.0 9.0 0.00 0.00 0.00 30 1010.3
20260509175504 81 250 3.0 9.0 0.00 0.00 0.00 33 1010.4
20260509175003 80 240 4.0 12.0 0.00 0.00 0.00 29 1010.5
20260509174509 80 225 4.0 12.0 0.00 0.00 0.00 28 1010.6
20260509174004 80 246 3.0 10.0 0.00 0.00 0.00 30 1010.7
20260509173506 80 250 3.0 10.0 0.00 0.00 0.00 31 1010.8
20260509173016 80 236 5.0 11.0 0.00 0.00 0.00 30 1010.9
20260509172509 80 219 5.0 15.0 0.00 0.00 0.00 33 1011.0
20260509172007 79 254 7.0 15.0 0.00 0.00 0.00 31 1011.0
20260509171503 78 250 4.0 9.0 0.00 0.00 0.00 33 1011.1
20260509171002 77 197 4.0 9.0 0.00 0.00 0.00 33 1011.1
20260509170504 76 221 4.0 10.0 0.00 0.00 0.00 35 1011.2
20260509170004 76 247 4.0 12.0 0.00 0.00 0.00 36 1011.2
20260509165506 75 244 5.0 12.0 0.00 0.00 0.00 36 1011.3
20260509165003 75 203 3.0 9.0 0.00 0.00 0.00 38 1011.3
20260509164511 74 207 4.0 10.0 0.00 0.00 0.00 39 1011.4
20260509164008 74 254 3.0 10.0 0.00 0.00 0.00 40 1011.4
20260509163510 73 256 4.0 12.0 0.00 0.00 0.00 40 1011.3
20260509163023 72 267 5.0 12.0 0.00 0.00 0.00 42 1011.3
20260509162509 72 257 4.0 12.0 0.00 0.00 0.00 41 1011.2
20260509162011 71 225 6.0 14.0 0.00 0.00 0.00 42 1011.1
20260509161503 71 221 5.0 14.0 0.00 0.00 0.00 42 1011.0
20260509161004 71 238 8.0 14.0 0.00 0.00 0.00 42 1011.0
20260509160504 71 182 5.0 11.0 0.00 0.00 0.00 43 1010.9
20260509160006 70 227 6.0 10.0 0.00 0.00 0.00 44 1011.0
20260509155505 70 224 5.0 13.0 0.00 0.00 0.00 45 1011.1
20260509155008 70 221 5.0 17.0 0.00 0.00 0.00 45 1011.2
20260509154516 70 237 7.0 17.0 0.00 0.00 0.00 45 1011.3
20260509154007 69 231 3.0 10.0 0.00 0.00 0.00 45 1011.4
20260509153509 69 205 3.0 11.0 0.00 0.00 0.00 45 1011.5
20260509153024 69 229 5.0 11.0 0.00 0.00 0.00 44 1011.5
20260509152507 69 250 3.0 9.0 0.00 0.00 0.00 45 1011.6
20260509152004 69 221 3.0 10.0 0.00 0.00 0.00 45 1011.6
20260509151506 69 246 3.0 10.0 0.00 0.00 0.00 45 1011.6
20260509151004 69 231 5.0 10.0 0.00 0.00 0.00 45 1011.6
20260509150504 69 258 3.0 11.0 0.00 0.00 0.00 46 1011.6
20260509150011 69 244 3.0 10.0 0.00 0.00 0.00 45 1011.5
20260509145506 69 265 4.0 12.0 0.00 0.00 0.00 45 1011.4
20260509145009 69 246 4.0 12.0 0.00 0.00 0.00 45 1011.2
20260509144516 69 279 5.0 11.0 0.00 0.00 0.00 45 1011.2
20260509144009 68 235 5.0 11.0 0.00 0.00 0.00 46 1011.1
20260509143509 68 255 3.0 11.0 0.00 0.00 0.00 47 1011.1
20260509143028 68 253 5.0 11.0 0.00 0.00 0.00 48 1011.1
20260509142512 67 238 5.0 11.0 0.00 0.00 0.00 50 1011.2
20260509142004 66 254 3.0 11.0 0.00 0.00 0.00 50 1011.1
20260509141508 65 252 1.0 9.0 0.00 0.00 0.00 50 1011.1
20260509141006 65 227 4.0 10.0 0.00 0.00 0.00 50 1011.2
20260509140504 65 257 4.0 10.0 0.00 0.00 0.00 50 1011.3
20260509140013 65 277 4.0 9.0 0.00 0.00 0.00 51 1011.4
20260509135505 65 253 5.0 11.0 0.00 0.00 0.00 51 1011.4
20260509135008 64 244 5.0 11.0 0.00 0.00 0.00 53 1011.1
20260509134520 63 252 3.0 10.0 0.00 0.00 0.00 54 1011.1
20260509134006 62 266 5.0 10.0 0.00 0.00 0.00 54 1010.9
20260509133507 62 262 4.0 11.0 0.00 0.00 0.00 54 1010.9
20260509133025 61 240 5.0 11.0 0.00 0.00 0.00 55 1010.9
20260509132504 61 238 4.0 12.0 0.00 0.00 0.00 55 1010.8
20260509132003 60 257 4.0 12.0 0.00 0.00 0.00 55 1010.7
20260509131512 59 248 3.0 10.0 0.00 0.00 0.00 56 1010.7
20260509131006 59 225 3.0 8.0 0.00 0.00 0.00 57 1010.8
20260509130510 58 242 4.0 8.0 0.00 0.00 0.00 58 1010.8
20260509130020 57 234 3.0 8.0 0.00 0.00 0.00 60 1010.7
20260509125506 56 231 3.0 11.0 0.00 0.00 0.00 60 1010.8
20260509125008 56 247 3.0 11.0 0.00 0.00 0.00 61 1010.8
20260509124520 55 220 2.0 8.0 0.00 0.00 0.00 62 1010.7
20260509124008 54 242 3.0 7.0 0.00 0.00 0.00 63 1010.7
20260509123508 54 250 2.0 6.0 0.00 0.00 0.00 63 1010.7
20260509123005 53 229 3.0 8.0 0.00 0.00 0.00 64 1010.6
20260509122504 53 202 3.0 8.0 0.00 0.00 0.00 64 1010.6
20260509122005 52 246 2.0 7.0 0.00 0.00 0.00 65 1010.5
20260509121512 52 246 2.0 10.0 0.00 0.00 0.00 65 1010.5
20260509121007 51 270 2.0 10.0 0.00 0.00 0.00 66 1010.4
20260509120507 50 210 4.0 10.0 0.00 0.00 0.00 66 1010.4
20260509120019 50 308 3.0 8.0 0.00 0.00 0.00 66 1010.4
20260509115506 50 253 2.0 8.0 0.00 0.00 0.00 67 1010.4
20260509115009 49 215 3.0 7.0 0.00 0.00 0.00 67 1010.4
20260509114526 49 241 1.0 4.0 0.00 0.00 0.00 67 1010.4
20260509114010 49 240 0.0 4.0 0.00 0.00 0.00 66 1010.3
20260509113509 49 244 1.0 4.0 0.00 0.00 0.00 66 1010.4
20260509113014 49 222 0.0 7.0 0.00 0.00 0.00 66 1010.3
20260509112507 49 240 1.0 7.0 0.00 0.00 0.00 66 1010.3
20260509112007 50 246 1.0 4.0 0.00 0.00 0.00 66 1010.3
20260509111518 50 223 1.0 4.0 0.00 0.00 0.00 66 1010.2
20260509111008 50 199 1.0 4.0 0.00 0.00 0.00 65 1010.3
20260509110508 50 227 1.0 4.0 0.00 0.00 0.00 65 1010.3
20260509110023 50 214 1.0 4.0 0.00 0.00 0.00 65 1010.1
20260509105507 50 250 1.0 6.0 0.00 0.00 0.00 65 1010.2
20260509105010 50 211 2.0 7.0 0.00 0.00 0.00 65 1010.3
20260509104525 50 243 3.0 7.0 0.00 0.00 0.00 65 1010.2
20260509104006 49 249 2.0 4.0 0.00 0.00 0.00 65 1010.3
20260509103509 49 224 0.0 3.0 0.00 0.00 0.00 65 1010.2
20260509103012 50 233 0.0 2.0 0.00 0.00 0.00 65 1010.3
20260509102504 50 238 1.0 2.0 0.00 0.00 0.00 65 1010.2
20260509102009 50 238 1.0 4.0 0.00 0.00 0.00 65 1010.3
20260509101520 50 225 1.0 4.0 0.00 0.00 0.00 64 1010.3
20260509101008 50 252 1.0 4.0 0.00 0.00 0.00 64 1010.4
20260509100508 50 235 1.0 4.0 0.00 0.00 0.00 64 1010.4
20260509100026 50 237 1.0 4.0 0.00 0.00 0.00 64 1010.4
20260509095508 50 239 0.0 5.0 0.00 0.00 0.00 64 1010.3
20260509095009 50 234 1.0 5.0 0.00 0.00 0.00 64 1010.2
20260509094528 50 244 0.0 7.0 0.00 0.00 0.00 64 1010.2
20260509094010 50 239 1.0 7.0 0.00 0.00 0.00 64 1010.3
20260509093508 50 238 1.0 4.0 0.00 0.00 0.00 64 1010.2
20260509093016 50 264 2.0 4.0 0.00 0.00 0.00 64 1010.2
20260509092504 50 211 0.0 3.0 0.00 0.00 0.00 64 1010.3
20260509092003 50 221 1.0 3.0 0.00 0.00 0.00 63 1010.3
20260509091511 51 219 0.0 2.0 0.00 0.00 0.00 63 1010.3
20260509091004 51 209 0.0 3.0 0.00 0.00 0.00 63 1010.3
20260509090505 51 219 1.0 4.0 0.00 0.00 0.00 62 1010.3
20260509090004 51 193 1.0 4.0 0.00 0.00 0.00 62 1010.3
20260509085504 51 214 2.0 4.0 0.00 0.00 0.00 62 1010.4
20260509085004 51 259 1.0 4.0 0.00 0.00 0.00 62 1010.3
20260509084511 51 236 1.0 4.0 0.00 0.00 0.00 61 1010.3
20260509084004 51 241 1.0 5.0 0.00 0.00 0.00 61 1010.3
20260509083504 51 250 2.0 7.0 0.00 0.00 0.00 61 1010.4
20260509083008 51 250 3.0 7.0 0.00 0.00 0.00 61 1010.4
20260509082503 52 244 2.0 6.0 0.00 0.00 0.00 61 1010.4
20260509082004 52 248 0.0 6.0 0.00 0.00 0.00 61 1010.4
20260509081509 52 230 1.0 4.0 0.00 0.00 0.00 61 1010.5
20260509081005 52 238 1.0 4.0 0.00 0.00 0.00 61 1010.5
20260509080504 52 225 1.0 2.0 0.00 0.00 0.00 61 1010.6
20260509080013 52 233 0.0 2.0 0.00 0.00 0.00 61 1010.6
20260509075505 52 217 0.0 4.0 0.00 0.00 0.00 61 1010.7
20260509075006 52 234 1.0 5.0 0.00 0.00 0.00 61 1010.7
20260509074506 52 239 1.0 5.0 0.00 0.00 0.00 61 1010.7
20260509074004 52 219 1.0 2.0 0.00 0.00 0.00 61 1010.7
20260509073504 52 221 0.0 4.0 0.00 0.00 0.00 61 1010.8
20260509073021 52 236 2.0 4.0 0.00 0.00 0.00 61 1010.9
20260509072504 52 248 0.0 2.0 0.00 0.00 0.00 60 1010.8
20260509072007 53 231 0.0 2.0 0.00 0.00 0.00 60 1010.9
20260509071507 53 221 0.0 4.0 0.00 0.00 0.00 60 1011.0
20260509071004 53 248 1.0 4.0 0.00 0.00 0.00 60 1011.0
20260509070506 53 245 1.0 4.0 0.00 0.00 0.00 60 1011.0
20260509070008 53 241 1.0 4.0 0.00 0.00 0.00 60 1011.0
20260509065505 53 219 2.0 5.0 0.00 0.00 0.00 60 1010.9
20260509065002 53 261 1.0 5.0 0.00 0.00 0.00 60 1010.9
20260509064509 53 257 1.0 4.0 0.00 0.00 0.00 60 1011.0
20260509064007 53 247 1.0 4.0 0.00 0.00 0.00 60 1011.0
20260509063504 53 241 1.0 4.0 0.00 0.00 0.00 60 1011.1
20260509063009 53 244 0.0 4.0 0.00 0.00 0.00 59 1010.9
20260509062508 54 226 0.0 2.0 0.00 0.00 0.00 59 1010.7
20260509062007 54 226 0.0 2.0 0.00 0.00 0.00 58 1010.8
20260509061509 54 226 0.0 2.0 0.00 0.00 0.00 57 1010.7
20260509061004 54 226 0.0 2.0 0.00 0.00 0.00 57 1010.6
20260509060506 55 238 0.0 0.0 0.00 0.00 0.00 57 1010.7
20260509060015 55 238 0.0 0.0 0.00 0.00 0.00 56 1010.7
20260509055508 55 238 0.0 0.0 0.00 0.00 0.00 55 1010.6
20260509055005 55 238 0.0 0.0 0.00 0.00 0.00 55 1010.7
20260509054518 56 238 0.0 0.0 0.00 0.00 0.00 55 1010.7
20260509054007 56 238 0.0 0.0 0.00 0.00 0.00 54 1010.6
20260509053503 56 238 0.0 0.0 0.00 0.00 0.00 53 1010.8
20260509053013 57 238 0.0 0.0 0.00 0.00 0.00 52 1010.8
20260509052504 57 238 0.0 1.0 0.00 0.00 0.00 52 1010.8
20260509052003 57 238 0.0 2.0 0.00 0.00 0.00 51 1010.7
20260509051511 57 238 0.0 2.0 0.00 0.00 0.00 50 1010.7
20260509051003 58 230 0.0 2.0 0.00 0.00 0.00 50 1010.7
20260509050509 58 223 0.0 0.0 0.00 0.00 0.00 50 1010.7
20260509050014 58 217 0.0 1.0 0.00 0.00 0.00 49 1010.7
20260509045504 58 225 0.0 2.0 0.00 0.00 0.00 49 1010.7
20260509045004 58 219 0.0 3.0 0.00 0.00 0.00 49 1010.7
20260509044515 58 211 0.0 3.0 0.00 0.00 0.00 49 1010.7
20260509044002 58 223 1.0 3.0 0.00 0.00 0.00 49 1010.7
20260509043504 59 200 0.0 2.0 0.00 0.00 0.00 49 1010.7
20260509043022 59 206 0.0 2.0 0.00 0.00 0.00 49 1010.7
20260509042507 59 206 0.0 2.0 0.00 0.00 0.00 48 1010.7
20260509042007 59 206 0.0 2.0 0.00 0.00 0.00 48 1010.6
20260509041512 59 206 0.0 2.0 0.00 0.00 0.00 48 1010.6
20260509041006 60 205 0.0 2.0 0.00 0.00 0.00 47 1010.6
20260509040503 60 205 0.0 2.0 0.00 0.00 0.00 47 1010.7
20260509040012 60 205 0.0 2.0 0.00 0.00 0.00 47 1010.6
20260509035504 60 205 0.0 2.0 0.00 0.00 0.00 47 1010.6
20260509035003 61 205 0.0 2.0 0.00 0.00 0.00 46 1010.6
20260509034513 61 205 0.0 2.0 0.00 0.00 0.00 46 1010.6
20260509034005 61 205 0.0 2.0 0.00 0.00 0.00 45 1010.4
20260509033505 62 205 0.0 2.0 0.00 0.00 0.00 44 1010.4
20260509033015 62 205 0.0 2.0 0.00 0.00 0.00 45 1010.3
20260509032507 62 205 0.0 2.0 0.00 0.00 0.00 44 1010.4
20260509032006 63 205 0.0 2.0 0.00 0.00 0.00 43 1010.3
20260509031519 63 205 1.0 2.0 0.00 0.00 0.00 43 1010.3
20260509031005 63 205 0.0 2.0 0.00 0.00 0.00 42 1010.2
20260509030508 63 205 0.0 2.0 0.00 0.00 0.00 43 1010.2
20260509030019 64 205 1.0 2.0 0.00 0.00 0.00 41 1010.1
20260509025506 64 210 0.0 2.0 0.00 0.00 0.00 41 1010.0
20260509025007 64 211 1.0 2.0 0.00 0.00 0.00 41 1010.0
20260509024516 64 201 0.0 2.0 0.00 0.00 0.00 40 1010.0
20260509024008 65 201 0.0 2.0 0.00 0.00 0.00 40 1009.8
20260509023503 65 198 0.0 2.0 0.00 0.00 0.00 40 1009.7
20260509023022 65 216 0.0 2.0 0.00 0.00 0.00 40 1009.7
20260509022506 65 286 0.0 2.0 0.00 0.00 0.00 41 1009.6
20260509022010 66 286 0.0 2.0 0.00 0.00 0.00 41 1009.6
20260509021520 66 286 0.0 2.0 0.00 0.00 0.00 40 1009.5
20260509021010 67 286 0.0 2.0 0.00 0.00 0.00 39 1009.5
20260509020510 67 286 0.0 1.0 0.00 0.00 0.00 38 1009.6
20260509020017 67 286 0.0 1.0 0.00 0.00 0.00 37 1009.6
20260509015509 68 286 0.0 2.0 0.00 0.00 0.00 36 1009.7
20260509015006 68 286 0.0 2.0 0.00 0.00 0.00 37 1009.6
20260509014514 69 286 0.0 2.0 0.00 0.00 0.00 35 1009.6
20260509014007 69 286 0.0 2.0 0.00 0.00 0.00 34 1009.6
20260509013511 70 286 0.0 2.0 0.00 0.00 0.00 34 1009.5
20260509013037 71 286 0.0 2.0 0.00 0.00 0.00 33 1009.5
20260509012504 71 286 0.0 2.0 0.00 0.00 0.00 33 1009.5
20260509012004 71 286 0.0 2.0 0.00 0.00 0.00 31 1009.5
20260509011516 72 286 0.0 2.0 0.00 0.00 0.00 31 1009.5
20260509011006 72 286 0.0 1.0 0.00 0.00 0.00 31 1009.5
20260509010510 73 286 1.0 3.0 0.00 0.00 0.00 30 1009.4
20260509010023 73 286 2.0 3.0 0.00 0.00 0.00 30 1009.4
20260509005509 73 292 1.0 7.0 0.00 0.00 0.00 30 1009.5
20260509005008 73 299 3.0 10.0 0.00 0.00 0.00 29 1009.6
20260509004533 73 299 4.0 10.0 0.00 0.00 0.00 29 1009.5
20260509004007 73 291 6.0 10.0 0.00 0.00 0.00 28 1009.5
20260509003506 74 318 6.0 10.0 0.00 0.00 0.00 29 1009.4
20260509003015 74 294 5.0 10.0 0.00 0.00 0.00 29 1009.5
20260509002508 74 300 5.0 9.0 0.00 0.00 0.00 29 1009.5
20260509002007 74 336 6.0 10.0 0.00 0.00 0.00 28 1009.5
20260509001517 74 334 6.0 13.0 0.00 0.00 0.00 28 1009.5
20260509001006 74 334 6.0 13.0 0.00 0.00 0.00 28 1009.5
20260509000507 74 329 7.0 12.0 0.00 0.00 0.00 28 1009.5
20260509000016 74 352 6.0 13.0 0.00 0.00 0.00 28 1009.4
20260508235507 75 346 9.0 13.0 0.00 0.00 0.00 27 1009.4
20260508235008 75 5 2.0 11.0 0.00 0.00 0.00 28 1009.4
20260508234518 75 314 4.0 11.0 0.00 0.00 0.00 28 1009.4
20260508234008 75 317 6.0 11.0 0.00 0.00 0.00 28 1009.5
20260508233508 75 22 5.0 16.0 0.00 0.00 0.00 28 1009.5
20260508233017 75 9 8.0 16.0 0.00 0.00 0.00 27 1009.6
20260508232504 76 46 11.0 14.0 0.00 0.00 0.00 27 1009.5
20260508232006 77 21 8.0 12.0 0.00 0.00 0.00 27 1009.5
20260508231509 77 38 3.0 14.0 0.00 0.00 0.00 26 1009.5
20260508231004 77 352 5.0 16.0 0.00 0.00 0.00 27 1009.5
20260508230502 77 346 5.0 16.0 0.00 0.00 0.00 26 1009.6
20260508230017 77 310 9.0 16.0 0.00 0.00 0.00 27 1009.5
20260508225505 76 315 11.0 16.0 0.00 0.00 0.00 27 1009.5
20260508225005 77 34 12.0 18.0 0.00 0.00 0.00 26 1009.5